Vorticity
6 7 8 9 8 4 6 11 11 6 3 4 6 5 6 4 5 5 7 5 6 7 7 8 6 4 7 9 5 4 2 9 1 7 13 12 14 16 14 9 6 2 1 6 -6
8 7 7 7 7 7 8 7 8 12 9 5 5 5 6 5 6 6 5 5 6 5 8 7 7 8 5 7 8 3 6 8 14 1 7 7 7 11 -0 6 7 1 0 1 9
9 8 8 8 9 8 6 6 8 9 10 10 7 4 4 7 6 11 3 5 5 7 5 9 6 7 5 7 5 7 11 2 -3 -4 5 -4 4 16 8 3 4 9 1 -7 -3
11 10 9 9 9 9 10 8 6 6 11 10 10 10 5 5 5 27 17 2 8 5 6 6 6 6 7 5 1 3 6 5 1 -6 -6 2 -0 1 7 7 5 2 13 4 1
12 12 13 12 9 9 9 10 10 8 7 9 12 10 13 7 5 -14 14 26 10 6 7 4 6 7 9 5 7 3 4 6 5 -6 -2 -2 3 4 8 3 13 6 5 7 -0
11 14 13 13 12 9 9 11 10 9 10 7 9 12 8 8 1 1 0 4 19 15 8 8 6 5 9 7 2 4 6 7 3 8 9 -2 -2 2 9 2 8 8 1 3 4
8 7 8 11 12 11 10 8 9 10 10 10 8 8 8 18 -1 21 2 -4 -8 15 10 12 9 0 15 10 5 7 10 6 5 3 10 6 3 -5 11 2 0 3 5 -2 -1
9 10 10 8 8 11 11 10 10 10 10 11 10 10 8 10 12 8 8 7 12 6 8 13 13 4 2 7 1 17 14 9 6 3 7 4 18 -1 10 -1 8 -1 -6 -4 -3
9 11 13 13 12 11 9 10 10 9 9 11 10 8 15 10 10 21 10 -7 7 7 12 14 10 6 1 8 5 -3 -3 17 8 8 2 -9 11 19 -3 2 5 7 3 20 6
14 12 13 18 19 21 14 12 12 11 10 7 11 13 -1 1 13 40 19 10 4 -5 -7 2 6 8 2 4 -11 -24 20 -1 1 11 9 0 1 -7 3 14 11 13 19 12 21
17 17 14 11 17 21 24 16 17 21 10 5 -8 17 -33 7 -3 51 43 9 8 -4 24 -13 -7 5 2 2 6 -41 50 -12 41 12 7 11 13 1 -0 -6 8 13 11 14 20
6 2 10 13 9 12 21 22 14 8 28 14 14 9 -1 19 5 -13 29 11 10 7 8 11 13 -2 4 9 5 6 -5 -12 27 -5 7 10 12 24 14 6 5 6 16 -1 7
2 7 11 10 14 12 17 25 22 9 10 20 9 17 8 7 -3 4 4 20 30 13 6 2 1 7 -3 7 5 1 4 5 -13 -17 15 15 17 1 3 19 18 2 19 2 6
3 9 10 10 16 23 21 22 21 10 4 36 34 26 11 13 9 10 10 14 9 26 11 8 26 -16 50 -6 5 5 5 3 5 25 20 56 20 26 17 4 7 4 14 4 10
3 9 12 14 15 28 18 20 18 18 1 31 39 34 22 17 -3 35 16 2 9 -5 51 14 26 13 -35 31 17 12 10 -1 14 4 -11 -16 -4 34 15 27 2 -2 21 9 -2
3 10 14 15 20 20 15 5 19 -8 15 8 6 27 10 23 5 6 40 -3 5 3 -24 37 -9 25 17 -29 22 30 -13 12 32 8 41 6 -22 44 18 10 19 -8 7 11 4
4 11 13 14 24 18 8 -10 19 -6 9 27 7 9 4 23 23 13 7 25 -22 17 26 -11 28 -20 -10 32 -6 -2 12 16 31 21 -0 20 29 -51 31 68 31 2 -1 -0 -2
6 12 18 21 17 18 13 7 10 62 -34 -16 14 25 9 5 23 21 14 7 38 -27 52 -0 46 1 28 -3 -2 8 -6 -47 2 9 36 -4 44 4 84 -41 -32 58 39 -13 -1
7 14 19 12 19 24 4 17 -7 11 36 14 -26 -4 20 13 -0 19 36 19 11 21 -43 42 7 2 48 11 2 54 0 -10 -56 -6 19 18 27 2 5 27 9 2 -36 12 -4
4 20 20 22 10 23 14 -14 16 31 -5 6 46 -39 12 14 4 11 16 59 27 7 23 -6 1 46 -6 38 20 2 29 28 -6 9 -20 20 15 -10 32 -14 -13 -8 -5 -8 10
6 9 20 7 18 14 6 -7 1 1 -1 -9 8 15 2 -24 24 32 -32 -38 31 81 -14 4 -13 -2 43 9 0 35 1 -22 29 -33 -5 8 22 -20 5 9 33 32 47 19 18
11 7 17 32 24 8 6 15 12 -9 -39 23 -20 -3 12 15 25 4 -7 3 21 -10 36 34 -25 45 -1 -11 41 34 38 -11 -22 19 29 -29 23 -36 65 21 -36 24 -17 -42 -15
17 15 10 24 3 35 5 8 15 14 -9 28 7 12 29 -12 10 6 28 52 35 32 -8 40 22 33 43 32 11 -21 1 13 34 5 7 -30 48 17 -46 -31 38 39 36 0 20
10 10 11 5 4 -12 -8 13 40 33 5 15 -6 -1 9 17 -2 8 -9 -11 2 9 27 21 -7 -8 -17 -6 30 44 -8 -2 -12 11 26 5 11 -1 -8 31 2 -41 -45 -17 10
8 6 6 -7 1 10 11 -9 -6 2 48 17 -1 33 35 -0 -6 33 1 -11 -9 -7 6 12 18 -0 0 40 -5 4 37 2 33 10 12 24 16 13 19 22 -11 -9 10 11 -22
12 11 11 4 15 13 -2 22 23 17 -2 12 23 29 5 1 -23 18 23 17 1 -8 10 19 12 7 33 31 77 -32 3 -0 -9 1 23 12 27 1 -7 -14 8 17 10 15 -4
11 13 11 4 4 8 19 -2 0 12 11 18 8 8 11 20 13 17 12 23 2 3 5 5 -6 17 19 -2 8 37 2 36 14 -2 6 19 23 23 11 7 15 1 8 25 8
Height
3107 3107 3108 3108 3108 3108 3109 3111 3113 3114 3115 3117 3119 3121 3123 3126 3129 3131 3136 3141 3139 3142 3144 3147 3148 3149 3151 3153 3153 3154 3155 3155 3159 3161 3161 3162 3165 3165 3166 3168 3168 3170 3171 3172 3171
3102 3101 3101 3102 3102 3102 3102 3103 3106 3107 3108 3110 3112 3114 3117 3119 3122 3126 3134 3132 3134 3137 3140 3142 3143 3144 3147 3150 3149 3150 3150 3153 3159 3159 3159 3159 3162 3164 3166 3166 3166 3168 3169 3170 3169
3096 3096 3095 3094 3094 3095 3096 3096 3097 3099 3102 3103 3104 3107 3109 3113 3117 3123 3121 3125 3129 3130 3134 3137 3139 3139 3142 3145 3146 3145 3145 3151 3155 3156 3156 3157 3158 3163 3163 3163 3165 3166 3167 3168 3168
3089 3089 3088 3088 3087 3087 3088 3089 3090 3092 3094 3096 3097 3100 3104 3107 3113 3111 3116 3120 3125 3126 3129 3133 3134 3136 3137 3139 3143 3141 3143 3147 3150 3152 3151 3152 3153 3156 3160 3161 3161 3162 3164 3165 3167
3083 3082 3082 3081 3081 3081 3081 3081 3082 3084 3086 3088 3090 3092 3095 3097 3102 3107 3110 3113 3118 3120 3124 3126 3128 3131 3132 3134 3138 3136 3140 3143 3144 3146 3148 3148 3150 3152 3154 3157 3158 3159 3160 3162 3164
3077 3077 3075 3074 3074 3073 3073 3074 3074 3076 3078 3080 3082 3084 3085 3085 3099 3103 3106 3109 3111 3115 3119 3122 3124 3125 3125 3127 3129 3131 3134 3136 3138 3140 3142 3144 3146 3147 3151 3154 3155 3155 3156 3157 3160
3070 3070 3068 3067 3066 3066 3066 3066 3067 3067 3069 3072 3073 3074 3075 3077 3089 3096 3098 3103 3106 3110 3113 3117 3120 3119 3121 3121 3125 3126 3130 3131 3133 3137 3139 3141 3138 3138 3148 3150 3152 3153 3153 3153 3154
3063 3062 3061 3060 3059 3058 3058 3059 3059 3060 3061 3063 3065 3065 3061 3073 3079 3087 3090 3097 3100 3105 3109 3111 3114 3114 3114 3118 3119 3121 3123 3123 3127 3132 3136 3138 3129 3137 3143 3145 3148 3151 3150 3151 3150
3054 3053 3052 3051 3050 3050 3050 3050 3051 3052 3053 3055 3058 3058 3056 3062 3070 3083 3082 3088 3096 3098 3101 3106 3106 3108 3111 3113 3115 3116 3112 3113 3119 3125 3130 3130 3126 3132 3138 3138 3140 3143 3145 3146 3146
3048 3044 3042 3041 3041 3041 3041 3042 3043 3043 3045 3048 3050 3056 3055 3056 3059 3065 3072 3078 3085 3091 3094 3098 3098 3100 3104 3106 3099 3103 3107 3110 3111 3120 3122 3123 3119 3127 3132 3131 3131 3133 3135 3137 3139
3044 3041 3037 3035 3033 3033 3034 3034 3038 3038 3036 3040 3042 3044 3048 3047 3051 3057 3063 3068 3074 3080 3082 3087 3091 3086 3089 3097 3099 3101 3105 3107 3107 3113 3116 3113 3114 3117 3122 3122 3123 3123 3126 3127 3130
3038 3037 3035 3032 3029 3028 3027 3026 3028 3031 3027 3030 3033 3034 3041 3044 3043 3054 3058 3061 3064 3066 3075 3081 3076 3080 3091 3092 3096 3098 3099 3099 3103 3108 3109 3107 3103 3109 3112 3111 3115 3117 3119 3121 3123
3034 3032 3028 3026 3025 3023 3022 3023 3026 3027 3024 3019 3025 3026 3033 3038 3035 3045 3053 3053 3056 3060 3065 3067 3066 3082 3082 3084 3089 3090 3090 3095 3100 3103 3104 3102 3093 3098 3102 3103 3107 3110 3113 3115 3117
3030 3028 3024 3021 3021 3019 3020 3019 3021 3024 3024 3012 3016 3016 3023 3030 3026 3039 3043 3049 3049 3049 3058 3060 3067 3071 3075 3074 3083 3081 3087 3092 3096 3101 3096 3102 3089 3089 3092 3094 3097 3101 3104 3108 3111
3026 3024 3020 3016 3017 3018 3018 3018 3020 3023 3021 3012 3008 3012 3016 3021 3025 3030 3039 3039 3040 3045 3053 3047 3054 3059 3063 3063 3078 3073 3085 3087 3092 3094 3095 3095 3094 3070 3080 3083 3086 3093 3096 3101 3106
3022 3019 3016 3014 3012 3016 3015 3017 3019 3023 3012 3006 3004 3005 3008 3012 3016 3023 3029 3035 3038 3041 3044 3042 3052 3055 3056 3065 3070 3074 3080 3084 3087 3089 3087 3077 3089 3056 3069 3071 3079 3086 3090 3094 3099
3018 3015 3012 3010 3011 3010 3011 3014 3016 3010 3007 3004 3002 3002 3005 3007 3009 3014 3019 3020 3025 3032 3033 3036 3036 3044 3051 3055 3065 3069 3073 3079 3081 3081 3067 3068 3076 3052 3058 3064 3070 3078 3083 3088 3092
3014 3011 3008 3006 3005 3004 3007 3011 3007 3000 3002 3001 3003 3004 3004 3006 3007 3010 3013 3015 3020 3025 3029 3030 3032 3034 3037 3040 3049 3055 3058 3059 3064 3061 3055 3065 3054 3037 3054 3065 3064 3068 3075 3080 3083
3011 3008 3004 3002 3002 3001 3004 3006 3004 3000 3003 3001 3004 3002 3002 3003 3006 3007 3009 3012 3014 3019 3024 3024 3022 3028 3031 3037 3045 3044 3053 3044 3052 3051 3051 3047 3045 3049 3050 3054 3057 3062 3067 3070 3075
3008 3004 3001 2999 3000 3000 3002 2999 3001 3001 3002 3001 3001 3001 2999 3000 3004 3006 3005 3003 3007 3012 3019 3020 3020 3020 3026 3033 3037 3036 3040 3048 3048 3047 3046 3040 3036 3037 3041 3048 3052 3055 3058 3062 3065
3005 3002 3000 2998 2998 2998 2995 2995 2998 3000 3002 3001 2999 2998 2998 3000 3000 3003 2999 3001 3004 3009 3013 3015 3017 3016 3018 3022 3021 3029 3031 3035 3036 3038 3037 3038 3024 3032 3037 3043 3046 3048 3051 3054 3056
3002 3001 2999 2997 2997 2994 2992 2992 2996 2997 2999 2999 2997 2996 2998 3000 2998 2998 2999 3001 2999 3002 3005 3007 3008 3008 3009 3013 3018 3022 3023 3027 3027 3027 3027 3026 3015 3028 3033 3039 3043 3043 3045 3047 3049
2999 2998 2996 2996 2996 2994 2990 2991 2992 2992 2995 2994 2993 2993 2997 2997 2998 2995 2995 2997 2997 2998 3001 3004 3001 3002 3005 3009 3009 3010 3012 3015 3019 3022 3017 3019 3015 3026 3027 3029 3033 3036 3040 3041 3042
2997 2995 2994 2993 2992 2989 2987 2987 2988 2987 2986 2989 2987 2990 2992 2991 2994 2988 2989 2993 2994 2996 2998 2999 2998 2997 2992 2998 2999 3001 3003 3006 3009 3007 3007 3007 3014 3013 3019 3023 3030 3030 3032 3036 3039
2995 2992 2990 2989 2989 2987 2986 2984 2984 2983 2983 2983 2980 2983 2988 2986 2988 2983 2983 2984 2986 2992 2993 2991 2988 2989 2987 2992 2989 2989 2990 2994 2995 2999 3000 3004 3006 3003 3011 3018 3022 3024 3027 3031 3033
2991 2990 2986 2983 2982 2982 2981 2979 2979 2980 2979 2977 2976 2981 2981 2975 2978 2975 2980 2982 2978 2981 2985 2986 2983 2984 2980 2977 2978 2979 2981 2983 2986 2990 2991 2996 2994 2997 3003 3007 3009 3012 3018 3020 3023
2986 2984 2981 2979 2978 2977 2977 2976 2975 2974 2970 2971 2972 2971 2971 2973 2973 2972 2973 2971 2970 2972 2974 2979 2979 2978 2974 2976 2974 2970 2973 2977 2978 2982 2986 2986 2990 2992 2988 2992 2998 3003 3006 3008 3011